[[{"header":{"parameterUnit":"m.s-1","parameterCategory":1,"la1":30.2991,"la2":30.254,"lo1":-89.0895,"lo2":-89.0444,"dy":0.0017,"dx":0.0017,"nx":28,"ny":28,"refTime":"2023-04-02T21:00:00:Z","depth":0,"parameterNumber":2,"parameterNumberName":"U-component_of_WINDS"},"data":[0,0,0,0,0,0,0,0,0,0,0,0,0,0,0,0,0,0,0,0,0,0,0,0,0,0,0,0,0,0,0,0,0,0,0,0,0,0,0,0,0,0,0,0,0,0,0,0,0,0,0,0,0,0,0,0,0,0,-2.9484,-2.9485,0,-2.9539,-2.954,-2.954,-2.9549,-2.9548,-2.9548,-2.9547,-2.9602,-2.9603,-2.9605,0,0,0,0,0,0,0,0,0,0,0,0,0,-2.9386,-2.9387,-2.9484,-2.9485,-2.9486,-2.9539,-2.954,-2.954,-2.9549,-2.9548,-2.9548,-2.9547,-2.9601,-2.9603,-2.9605,0,0,0,0,0,0,0,0,0,0,0,0,0,-2.9433,-2.9388,-2.9484,-2.9496,-2.9498,-2.9539,-2.954,-2.9541,-2.9549,-2.9548,-2.9547,-2.9547,-2.96,-2.9603,-2.9606,-2.9638,0,0,-2.9614,-2.9616,0,0,0,0,0,0,0,0,-2.943,-2.9437,-2.9494,-2.9496,-2.9497,-2.9536,-2.9525,-2.9573,-2.9549,-2.9529,-2.9547,-2.9546,-2.958,-2.9585,-2.9597,-2.964,-2.9643,-2.9615,-2.9616,-2.9618,-2.9618,0,0,0,0,0,0,0,-2.9427,-2.9434,-2.9506,-2.9495,-2.9497,-2.9498,-2.9504,-2.9534,-2.9558,-2.9531,-2.9532,-2.9538,-2.9581,-2.9594,-2.9598,-2.9644,-2.9615,-2.9617,-2.9619,-2.962,-2.9716,-2.9717,0,0,0,0,0,0,-2.9422,-2.9432,-2.9504,-2.9508,-2.9462,-2.9501,-2.9508,-2.9525,-2.9558,-2.9562,-2.9539,-2.9538,-2.9589,-2.9595,-2.96,-2.9639,-2.9618,-2.962,-2.9622,-2.9715,-2.9716,-2.9717,0,0,0,0,0,0,-2.942,-2.9428,-2.9502,-2.947,-2.9479,-2.9503,-2.9522,-2.9526,-2.9539,-2.9564,-2.9568,-2.9547,-2.9589,-2.9596,-2.9628,-2.9641,-2.9622,-2.9624,-2.9714,-2.9715,-2.9716,-2.9717,0,0,0,0,0,0,-2.9417,-2.9427,-2.944,-2.947,-2.9481,-2.953,-2.9523,-2.9528,-2.9544,-2.9544,-2.9573,-2.9577,-2.9589,-2.9624,-2.9631,-2.9644,-2.9626,-2.9713,-2.9715,-2.9716,-2.9716,-2.9719,-2.972,0,0,0,0,0,-2.9413,-2.9438,-2.9441,-2.945,-2.9498,-2.9531,-2.9537,-2.955,-2.9545,-2.9557,-2.9574,-2.9576,-2.9639,-2.9627,-2.9635,-2.965,-2.9712,-2.9714,-2.9716,-2.9715,-2.9718,-2.972,0,0,0,0,0,0,-2.9408,-2.9442,-2.9446,-2.9481,-2.9503,-2.9532,-2.9548,-2.9553,-2.9577,-2.9575,-2.9591,-2.9597,-2.9629,-2.9643,-2.9629,-2.9682,-2.9675,-2.9678,-2.9672,-2.9674,-2.9677,-2.9672,-2.9629,0,0,0,0,0,-2.9412,-2.9436,-2.9464,-2.9493,-2.9504,-2.9524,-2.9539,-2.9548,-2.9571,-2.958,-2.9599,-2.962,-2.9645,-2.9661,-2.9685,-2.9719,-2.9725,-2.9733,-2.9735,-2.9736,-2.9739,-2.9757,-2.9761,-2.9723,-2.9723,-2.9723,0,0,-2.9418,-2.944,-2.9454,-2.9492,-2.951,-2.9535,-2.9532,-2.9558,-2.9576,-2.9584,-2.9615,-2.963,-2.9655,-2.9689,-2.9704,-2.9701,-2.9751,-2.9739,-2.974,-2.9741,-2.9759,-2.9763,-2.9766,-2.9724,-2.9724,-2.9724,0,0,-2.9442,-2.9461,-2.9487,-2.9505,-2.9533,-2.9546,-2.9552,-2.9581,-2.9591,-2.9623,-2.9629,-2.9651,-2.9693,-2.9711,-2.9725,-2.9757,-2.9759,-2.9764,-2.9774,-2.9792,-2.9795,-2.9797,-2.9807,-2.9811,-2.9767,-2.9767,-2.9767,0,-2.9446,-2.9484,-2.9499,-2.9525,-2.9541,-2.955,-2.9576,-2.9593,-2.9626,-2.9637,-2.9633,-2.9686,-2.9704,-2.9741,-2.9749,-2.9761,-2.9768,-2.976,-2.9793,-2.9796,-2.9799,-2.9808,-2.9812,-2.9767,-2.9767,-2.9767,-2.9767,0,-2.9487,-2.9513,-2.953,-2.9563,-2.9581,-2.9607,-2.9625,-2.9642,-2.9649,-2.9663,-2.9695,-2.9718,-2.9746,-2.9756,-2.9763,-2.9794,-2.9791,-2.979,-2.9783,-2.9802,-2.9812,-2.9816,-2.9768,-2.9767,-2.9767,-2.9767,0,0,-2.9508,-2.955,-2.9556,-2.957,-2.9602,-2.9622,-2.9648,-2.9676,-2.9689,-2.9713,-2.9734,-2.977,-2.9769,-2.9786,-2.9795,-2.9811,-2.9833,-2.9808,-2.9809,-2.9811,-2.9867,-2.9866,-2.987,-2.9836,-2.9836,-2.9837,-2.9864,0,-2.9535,-2.9581,-2.9596,-2.9634,-2.9658,-2.9667,-2.969,-2.9711,-2.9725,-2.9747,-2.9762,-2.9786,-2.9785,-2.9794,-2.9811,-2.9827,-2.9844,-2.9825,-2.9854,-2.9855,-2.9846,-2.9875,-2.9875,-2.9899,-2.9868,-2.9869,-2.9869,0,-2.9572,-2.9596,-2.9637,-2.9665,-2.9675,-2.9695,-2.9722,-2.9743,-2.9767,-2.9776,-2.9795,-2.9803,-2.983,-2.9822,-2.9859,-2.9846,-2.9859,-2.9869,-2.987,-2.9872,-2.9862,-2.9877,-2.9908,-2.9911,-2.9875,-2.9875,-2.9875,0,-2.9581,-2.9624,-2.9654,-2.9667,-2.9701,-2.9714,-2.9729,-2.9752,-2.9768,-2.9792,-2.9802,-2.9829,-2.9843,-2.9863,-2.9878,-2.9871,-2.9912,-2.9906,-2.992,-2.9919,-2.9927,-2.9926,-2.9959,-2.9938,-2.9938,-2.9937,-2.9937,0,-2.9609,-2.9633,-2.9659,-2.9677,-2.9704,-2.9721,-2.9748,-2.9763,-2.9784,-2.9805,-2.9815,-2.9834,-2.9853,-2.9875,-2.9887,-2.9915,-2.9922,-2.9929,-2.9931,-2.9927,-2.9926,-2.9935,-2.9933,-2.9938,-2.9938,-2.9938,-2.9938,0,-2.9623,-2.9642,-2.9675,-2.9704,-2.9712,-2.9731,-2.9756,-2.9774,-2.9789,-2.9815,-2.9822,-2.9845,-2.9871,-2.9888,-2.9921,-2.993,-2.9959,-2.9962,-2.9951,-2.9952,-2.9964,-2.9962,-3.0003,-3.0008,-2.9985,-2.9985,-2.9985,0,-2.9639,-2.9658,-2.969,-2.9704,-2.9719,-2.9743,-2.976,-2.9777,-2.9793,-2.9823,-2.9837,-2.9864,-2.9886,-2.9927,-2.9946,-2.9972,-2.9975,-2.9987,-2.9978,-2.9973,-2.9973,-2.9971,-2.9973,-2.9988,-2.9988,-2.9988,-2.9988,0,-2.9664,-2.9672,-2.9696,-2.9722,-2.9742,-2.9764,-2.9785,-2.9797,-2.9818,-2.9836,-2.9863,-2.988,-2.9915,-2.9941,-2.9968,-2.9983,-2.9989,-2.9991,-2.9995,-2.999,-2.9983,-2.9986,-2.9953,-2.999,-2.999,-2.999,-2.9989,-2.9989,-2.9679,-2.9695,-2.972,-2.9746,-2.9765,-2.9785,-2.9803,-2.982,-2.9843,-2.9872,-2.9881,-2.9909,-2.9933,-2.997,-2.9985,-3.0007,-3.0006,-3.0012,-3.0014,-3.0015,-3.0014,-2.998,-3.0012,-3.0012,-3.0012,-3.0012,-3.0012,0,-2.9703,-2.9719,-2.9743,-2.9773,-2.9794,-2.9798,-2.9823,-2.9839,-2.9864,-2.9886,-2.9908,-2.9938,-2.9964,-2.9986,-3.0012,-3.0025,-3.0029,-3.0031,-3.003,-3.0033,-3.0014,-3.0007,-3.0028,-3.0028,-3.0028,-3.0028,-3.0028,-3.0028,-2.9718,-2.9746,-2.9758,-2.9796,-2.9812,-2.984,-2.9853,-2.9872,-2.9889,-2.9923,-2.9945,-2.9959,-2.9981,-3.0009,-3.0032,-3.0038,-3.0047,-3.0049,-3.0055,-3.0036,-3.0034,-3.0033,-3.0026,-3.0051,-3.0051,-3.0072,-3.0072,-3.0072]},{"header":{"parameterUnit":"m.s-1","parameterCategory":1,"la1":30.2991,"la2":30.254,"lo1":-89.0895,"lo2":-89.0444,"dy":0.0017,"dx":0.0017,"nx":28,"ny":28,"refTime":"2023-04-02T21:00:00:Z","depth":0,"parameterNumber":3,"parameterNumberName":"V-component_of_WINDS"},"data":[0,0,0,0,0,0,0,0,0,0,0,0,0,0,0,0,0,0,0,0,0,0,0,0,0,0,0,0,0,0,0,0,0,0,0,0,0,0,0,0,0,0,0,0,0,0,0,0,0,0,0,0,0,0,0,0,0,0,4.0671,4.0672,0,4.0702,4.0703,4.0703,4.0685,4.0684,4.0684,4.0683,4.0713,4.0714,4.0716,0,0,0,0,0,0,0,0,0,0,0,0,0,4.0597,4.0598,4.0671,4.0672,4.0672,4.0702,4.0703,4.0703,4.0685,4.0684,4.0683,4.0682,4.0712,4.0714,4.0716,0,0,0,0,0,0,0,0,0,0,0,0,0,4.0629,4.0599,4.0671,4.0667,4.0667,4.0702,4.0703,4.0703,4.0686,4.0684,4.0683,4.0682,4.0712,4.0714,4.0716,4.0757,0,0,4.0724,4.0725,0,0,0,0,0,0,0,0,4.0627,4.0631,4.0667,4.0667,4.0667,4.0689,4.0687,4.0721,4.0686,4.0678,4.0683,4.0681,4.0706,4.0709,4.0717,4.0759,4.076,4.0724,4.0725,4.0726,4.0727,0,0,0,0,0,0,0,4.0625,4.063,4.0683,4.0668,4.0668,4.0664,4.0667,4.0694,4.0699,4.0679,4.0678,4.0682,4.0705,4.0715,4.0718,4.076,4.0724,4.0726,4.0728,4.0729,4.0841,4.0842,0,0,0,0,0,0,4.0623,4.0628,4.0682,4.0684,4.0643,4.0666,4.0669,4.0683,4.0699,4.07,4.0683,4.0681,4.0711,4.0715,4.0719,4.0771,4.0726,4.0729,4.073,4.0839,4.0841,4.0843,0,0,0,0,0,0,4.0621,4.0628,4.0681,4.0656,4.0662,4.0669,4.0684,4.0684,4.0694,4.0702,4.0702,4.0692,4.0711,4.0715,4.0749,4.0771,4.073,4.0732,4.0837,4.084,4.0842,4.0873,0,0,0,0,0,0,4.0619,4.0627,4.0643,4.0656,4.0664,4.0711,4.0685,4.0686,4.0698,4.0696,4.071,4.0711,4.071,4.0745,4.0751,4.0774,4.0734,4.0836,4.0839,4.0841,4.087,4.0876,4.0881,0,0,0,0,0,4.0617,4.0649,4.0643,4.065,4.0683,4.0712,4.0716,4.0715,4.07,4.0716,4.0721,4.0711,4.0767,4.0749,4.0755,4.0779,4.0834,4.0838,4.0841,4.0867,4.0875,4.0881,0,0,0,0,0,0,4.0636,4.065,4.0645,4.0682,4.0696,4.0709,4.0729,4.0722,4.074,4.0737,4.0734,4.0737,4.0773,4.0779,4.0758,4.0821,4.0799,4.0803,4.0816,4.0823,4.0829,4.0828,4.0736,0,0,0,0,0,4.0645,4.0667,4.0678,4.071,4.0718,4.0722,4.0735,4.0733,4.0747,4.0752,4.076,4.0774,4.0795,4.0809,4.0829,4.087,4.0875,4.089,4.0895,4.09,4.0905,4.0931,4.0939,4.0854,4.0854,4.0854,0,0,4.0663,4.0674,4.0688,4.0715,4.0725,4.075,4.0727,4.0752,4.0771,4.0756,4.0789,4.0795,4.0811,4.0849,4.0867,4.0855,4.0929,4.0904,4.0908,4.091,4.0935,4.0943,4.095,4.0857,4.0856,4.0856,0,0,4.0709,4.0718,4.0748,4.076,4.0777,4.078,4.0787,4.0801,4.0806,4.0839,4.0829,4.0851,4.0886,4.0899,4.091,4.0964,4.0956,4.097,4.1,4.1026,4.1032,4.1038,4.1061,4.1068,4.0975,4.0975,4.0975,0,4.0729,4.0765,4.0764,4.0791,4.0805,4.0794,4.0825,4.0836,4.0858,4.0868,4.0855,4.0902,4.0911,4.0955,4.0968,4.0976,4.0986,4.097,4.1031,4.1037,4.1043,4.1064,4.1073,4.0977,4.0977,4.0976,4.0976,0,4.0791,4.0817,4.0838,4.0863,4.0878,4.0907,4.091,4.0926,4.0923,4.0928,4.0964,4.0975,4.0999,4.1008,4.1004,4.1052,4.1045,4.1032,4.1009,4.1053,4.1073,4.1081,4.098,4.0979,4.0978,4.0978,0,0,4.085,4.0875,4.0883,4.0896,4.0915,4.0934,4.0963,4.0988,4.1003,4.1019,4.1045,4.1077,4.1066,4.1079,4.1076,4.1098,4.1145,4.1083,4.1083,4.1097,4.1201,4.1213,4.1223,4.1139,4.114,4.1141,4.1201,0,4.09,4.0952,4.0953,4.1001,4.1026,4.1017,4.1043,4.1058,4.1064,4.1086,4.1092,4.1116,4.1098,4.1106,4.1127,4.1135,4.1166,4.113,4.1165,4.1166,4.1164,4.1233,4.1245,4.1301,4.1209,4.121,4.1211,0,4.0964,4.0985,4.1037,4.1056,4.1066,4.109,4.1114,4.1135,4.1152,4.1155,4.1171,4.1166,4.1197,4.1173,4.1217,4.1193,4.1207,4.1213,4.1215,4.122,4.1193,4.1243,4.1318,4.1328,4.1223,4.1222,4.1221,0,4.1007,4.1047,4.1084,4.1094,4.1116,4.1134,4.1143,4.116,4.1175,4.1196,4.1207,4.123,4.1244,4.1262,4.1265,4.1246,4.1311,4.1285,4.1316,4.1316,4.1331,4.1331,4.1413,4.1336,4.1335,4.1335,4.1335,0,4.1064,4.1096,4.1104,4.1127,4.1164,4.1165,4.1201,4.121,4.1225,4.125,4.1242,4.1266,4.1267,4.1291,4.1293,4.1332,4.1337,4.1341,4.1342,4.1344,4.1344,4.1355,4.1352,4.1338,4.1337,4.1337,4.1336,0,4.1117,4.1123,4.1164,4.1182,4.1188,4.1215,4.1231,4.1253,4.1259,4.1291,4.1299,4.1308,4.1337,4.1341,4.1374,4.1375,4.1423,4.1417,4.1417,4.1418,4.1449,4.1447,4.1544,4.1558,4.1468,4.1469,4.147,0,4.1155,4.118,4.1203,4.122,4.1231,4.1258,4.1275,4.1277,4.1295,4.1318,4.1339,4.1367,4.1391,4.1438,4.1447,4.1473,4.1471,4.1503,4.1475,4.1477,4.1476,4.1475,4.1479,4.1509,4.151,4.1511,4.1511,0,4.1222,4.1225,4.1249,4.1277,4.1298,4.1319,4.1338,4.1352,4.1357,4.1378,4.1408,4.1427,4.1462,4.1492,4.1518,4.1528,4.1522,4.152,4.1529,4.1533,4.1533,4.1537,4.1436,4.1518,4.1518,4.1517,4.1517,4.1516,4.1271,4.1295,4.1315,4.1344,4.136,4.1379,4.1403,4.1412,4.1438,4.1469,4.1467,4.1502,4.1521,4.1557,4.1569,4.1597,4.1586,4.1598,4.1602,4.1606,4.1611,4.1527,4.1601,4.1601,4.16,4.16,4.16,0,4.1341,4.1354,4.1381,4.141,4.1434,4.1426,4.1448,4.1468,4.1499,4.1518,4.1542,4.1579,4.1608,4.162,4.1649,4.1669,4.1667,4.1677,4.1677,4.1681,4.1616,4.1608,4.1679,4.1679,4.1679,4.1679,4.1679,4.1679,4.138,4.1422,4.1427,4.1476,4.1489,4.1524,4.1538,4.1557,4.1572,4.1614,4.1639,4.1647,4.1665,4.1695,4.1722,4.1725,4.1738,4.175,4.1752,4.1692,4.1685,4.1677,4.1669,4.1752,4.1752,4.1814,4.1815,4.1815]}]]